Hourly Data Report for May 07, 2012

All times are specified in Local Standard Time (LST). Add 1 hour to adjust for Daylight Saving Time where and when it is observed.

YARMOUTH A
NOVA SCOTIA

43°49'37.000" N
66°05'17.000" W
42.90 m
8206495
71603
YQI

Download Data

Hourly Data (May 2012)
Hourly Data Report for May 7, 2012
Temp Definition
°C
Dew Point Temp Definition
°C
Rel Hum Definition
%
Wind Dir Definition
10's deg

Wind Spd Definition
km/h
Visibility Definition
km
Stn Press Definition
kPa
Hmdx Definition


Wind Chill Definition


Weather Definition


TIME
00:00 Legend Double Dagger 4.2 2.9 91 35 10 10.0 101.27     LegendNANA
01:00 Legend Double Dagger 4.0 2.8 92 35 12 10.0 101.25     LegendNANA
02:00 Legend Double Dagger 4.4 3.1 91 35 13 10.0 101.25     Clear
03:00 Legend Double Dagger 3.9 2.3 89 35 13 10.0 101.24     LegendNANA
04:00 Legend Double Dagger 4.2 1.6 83 35 17 10.0 101.27     LegendNANA
05:00 Legend Double Dagger 4.0 0.9 80 36 17 10.0 101.31     Clear
06:00 Legend Double Dagger 5.8 1.2 72 2 23 10.0 101.29     LegendNANA
07:00 Legend Double Dagger 8.4 2.4 66 1 15 10.0 101.34     LegendNANA
08:00 Legend Double Dagger 10.6 1.5 53 36 19 10.0 101.37     Mainly Clear
09:00 Legend Double Dagger 12.9 0.4 42 0 23 10.0 101.40     LegendNANA
10:00 Legend Double Dagger 13.6 2.6 47 32 21 10.0 101.39     LegendNANA
11:00 Legend Double Dagger 14.4 3.6 48 33 29 10.0 101.36     Mainly Clear
12:00 Legend Double Dagger 14.4 3.0 46 33 27 10.0 101.37     LegendNANA
13:00 Legend Double Dagger 15.0 1.6 40 32 35 10.0 101.36     LegendNANA
14:00 Legend Double Dagger 14.7 1.7 41 32 35 10.0 101.35     Mainly Clear
15:00 Legend Double Dagger 15.6 -0.5 33 34 34 10.0 101.34     LegendNANA
16:00 Legend Double Dagger 15.3 0.4 36 34 30 10.0 101.33     LegendNANA
17:00 Legend Double Dagger 15.1 0.6 37 33 26 10.0 101.30     Mainly Clear
18:00 Legend Double Dagger 15.2 1.1 38 34 16 10.0 101.29     LegendNANA
19:00 Legend Double Dagger 14.6 -2.7 30 1 5 10.0 101.35     LegendNANA
20:00 Legend Double Dagger 8.1 4.0 75 24 8 10.0 101.49     Mainly Clear
21:00 Legend Double Dagger 7.8 5.5 85 20 12 10.0 101.53     LegendNANA
22:00 Legend Double Dagger 6.2 5.2 93 18 11 10.0 101.53     LegendNANA
23:00 Legend Double Dagger 5.7 5.3 97   0 10.0 101.55     Mainly Clear

Notes on Data Quality.

Legend

  • E = Estimated
  • M = Missing
  • NA = Not Available
  • ‡ = Partner data that is not subject to review by the National Climate Archives
Date modified: